Theta_e
341 347 350 352 353 353 351 350 349 351 351 352 351 351 351 350 349 349 349 350 350 352 351 349 346 345 345 347 348 349 351 352 351 351 349 348 347 348 347 347 346 341 345
343 347 350 352 353 352 351 350 350 350 351 352 352 351 351 351 350 350 350 351 351 351 350 348 347 344 343 343 344 345 347 348 349 350 350 347 347 348 346 349 346 344 344
342 346 350 351 351 352 352 351 352 351 351 351 351 351 351 350 350 351 350 350 350 349 348 348 348 349 349 348 347 347 346 343 345 349 348 338 337 345 348 347 347 345 344
342 345 349 350 350 351 352 352 351 352 351 351 351 351 350 349 348 349 348 348 350 348 346 346 346 347 345 344 343 342 342 342 342 343 340 339 332 342 344 347 347 346 346
341 347 349 349 349 350 351 351 351 351 350 350 350 350 350 348 345 347 346 348 349 347 345 345 344 342 342 341 339 339 339 339 339 337 330 333 329 339 341 343 347 346 345
342 346 347 347 348 350 350 350 349 349 348 348 349 349 349 348 346 346 345 347 349 345 344 343 342 341 341 340 338 337 337 337 338 327 328 333 331 343 341 343 344 345 344
341 345 346 346 347 348 349 349 348 348 347 348 348 348 348 348 347 346 345 345 346 346 344 342 341 341 341 339 337 336 335 336 332 325 326 331 335 346 342 342 341 341 341
340 343 346 349 348 347 347 347 346 346 346 347 347 347 347 347 347 346 344 344 344 344 343 342 341 341 339 337 337 336 335 336 331 324 330 332 342 347 344 346 344 343 342
339 341 343 345 346 345 344 344 344 345 345 345 345 345 345 344 345 346 344 342 341 341 340 340 339 338 337 336 336 335 334 335 330 323 328 335 345 348 346 348 346 345 345
337 339 339 341 341 340 340 343 343 343 343 343 343 343 343 344 344 344 343 343 341 340 339 338 337 336 336 336 335 335 334 335 323 320 330 335 345 349 347 346 345 344 344
338 338 338 339 339 338 338 342 343 343 343 342 342 341 340 339 342 342 340 340 340 339 338 338 337 337 336 336 336 335 336 329 324 323 332 338 345 348 348 346 344 344 345
337 338 338 339 339 339 341 338 337 340 340 339 338 337 337 338 338 341 340 339 339 338 338 338 337 336 336 331 328 332 330 328 327 327 326 338 344 349 349 345 343 342 343
338 340 341 341 342 339 337 335 337 337 337 338 339 338 337 336 329 333 334 336 336 339 336 336 335 335 334 330 328 327 327 326 329 331 331 337 342 348 349 346 343 343 342
336 339 340 340 340 342 341 340 342 340 339 339 337 336 336 340 338 332 333 332 334 337 335 336 334 335 334 335 335 336 334 334 333 333 332 335 339 344 347 347 347 347 346
335 338 338 338 338 339 340 341 341 339 336 333 330 328 329 331 336 335 338 336 337 338 338 336 336 337 338 338 339 339 339 338 337 338 338 334 336 340 342 344 343 340 337
335 338 338 338 338 339 338 336 336 334 330 328 326 327 328 327 329 329 330 328 327 330 327 327 326 327 331 334 334 333 334 335 336 337 339 336 331 325 329 333 328 330 326
333 337 336 335 337 335 331 331 330 328 326 324 323 318 322 324 323 327 323 321 322 320 317 319 317 321 320 322 317 318 316 318 322 332 335 336 330 321 321 326 326 322 322
332 331 331 333 329 328 326 324 319 318 316 317 316 316 317 317 321 318 317 316 317 313 312 312 312 313 312 311 309 309 310 314 318 313 315 312 311 311 313 319 319 320 321
328 326 324 324 323 322 320 318 317 315 315 315 314 313 313 315 318 314 312 312 311 310 309 309 308 308 308 307 307 308 307 307 313 312 310 308 308 308 307 314 314 315 318
323 322 319 317 316 313 313 311 311 311 310 310 310 311 311 311 312 310 309 310 309 308 306 306 305 307 307 305 309 306 305 308 311 309 306 307 307 306 306 304 304 306 315
315 314 313 312 311 312 312 311 308 307 307 308 310 310 309 310 309 309 307 308 307 306 306 307 306 305 306 305 302 303 304 305 307 306 305 305 305 305 303 303 304 305 306
312 311 310 310 310 311 311 310 310 310 308 307 306 306 308 308 308 308 307 306 306 306 305 305 305 304 305 306 300 300 299 302 303 304 304 303 300 303 302 303 304 303 302
310 310 311 311 312 312 312 312 309 308 308 304 303 304 306 307 307 307 306 306 305 305 304 303 303 303 301 303 303 301 295 294 297 302 301 300 299 299 298 300 301 302 302
312 311 312 312 308 311 309 308 307 304 304 302 302 303 304 306 306 306 306 306 305 304 303 303 305 303 302 300 301 303 301 298 294 293 298 297 297 297 296 298 298 300 299
312 311 309 308 308 308 311 309 305 303 303 302 302 301 302 303 304 305 305 304 303 303 303 303 302 302 301 300 299 298 297 297 295 293 289 292 293 295 296 296 296 297 298
312 309 308 307 308 310 308 308 304 302 302 301 300 300 300 301 302 304 304 302 302 302 301 301 301 300 298 298 297 297 295 293 292 290 289 288 289 291 294 295 295 296 297
Wind_Speed
6 8 13 15 15 14 15 12 13 12 12 11 10 10 10 11 10 10 9 9 10 12 13 13 13 13 12 12 11 11 12 11 11 15 15 15 15 13 8 5 11 10 11
12 10 14 17 17 16 15 14 14 13 12 12 11 10 10 11 10 9 11 10 8 12 13 13 13 13 11 12 9 8 10 9 10 10 12 13 13 12 14 14 11 8 10
13 12 13 17 17 17 15 16 14 13 13 13 11 11 11 11 11 12 11 10 9 13 12 13 12 12 11 9 9 9 10 8 7 7 8 4 4 12 12 11 10 9 8
14 10 13 16 16 16 16 16 14 15 14 12 11 10 11 12 12 12 11 11 12 12 12 12 11 11 9 8 9 10 9 8 8 5 4 2 3 9 10 9 9 7 6
14 11 14 16 14 14 15 15 14 14 12 12 11 12 11 11 12 11 10 10 12 11 12 11 10 10 8 7 9 8 8 8 6 5 5 6 5 8 9 7 7 6 5
13 11 13 16 14 14 15 15 14 13 11 11 11 11 11 10 11 10 10 10 11 11 11 10 9 7 5 6 6 7 8 9 10 7 4 9 7 11 9 7 7 6 4
13 11 12 15 14 14 14 13 13 13 12 11 11 10 10 11 11 10 9 9 8 9 10 9 6 5 1 4 7 7 9 9 5 6 6 6 7 13 12 9 8 7 7
16 11 12 15 14 13 13 12 11 11 11 10 9 9 9 10 9 9 9 7 7 7 6 6 3 0 3 6 9 11 11 9 7 4 2 2 11 13 13 10 7 6 6
17 13 9 10 11 12 11 12 11 10 9 9 9 8 8 8 9 10 9 8 7 7 5 4 2 3 6 6 8 10 13 13 7 2 4 3 11 11 11 10 8 7 7
15 13 10 9 8 6 6 10 10 10 10 9 8 8 7 7 7 8 9 8 8 8 7 7 7 8 9 9 8 10 11 14 7 5 1 4 11 12 11 10 9 9 9
12 14 12 10 8 8 7 8 9 9 9 8 8 9 7 4 5 7 8 10 10 9 9 9 9 9 10 8 10 13 10 4 6 4 2 8 11 11 11 10 10 9 9
13 12 11 9 9 8 7 6 6 7 5 5 5 5 4 6 7 9 8 10 10 9 9 10 11 9 7 4 5 7 3 5 5 5 3 10 11 12 12 11 11 10 10
13 9 9 10 10 8 6 3 2 3 3 4 4 1 3 3 4 3 3 4 4 6 4 5 5 4 6 5 4 4 4 4 4 3 1 14 13 13 14 12 11 8 7
10 10 8 9 7 6 4 5 5 3 3 3 4 8 5 4 4 1 4 3 2 2 3 4 3 6 6 8 6 4 5 4 3 4 4 5 4 13 12 16 16 13 10
14 12 10 7 7 5 3 4 6 3 6 7 6 7 6 5 4 4 6 4 3 3 1 2 2 3 3 4 5 4 5 4 4 2 2 19 18 16 21 22 23 23 21
16 15 11 7 7 6 6 6 5 7 7 6 5 5 6 4 4 4 4 4 3 3 4 5 4 5 4 4 5 6 7 6 7 7 6 11 19 20 18 21 21 21 23
12 16 12 8 8 7 7 7 6 8 8 7 6 7 7 6 6 6 4 5 6 6 8 8 8 7 7 7 7 8 7 7 8 14 10 8 9 18 23 23 22 24 23
16 14 10 9 11 11 7 6 7 7 7 7 6 5 7 7 6 6 6 6 6 7 7 5 5 5 5 6 5 5 6 7 9 12 13 10 9 7 13 22 23 22 22
14 14 12 10 12 10 7 6 6 7 6 5 5 4 6 7 6 6 5 4 6 7 7 5 4 4 4 5 5 5 5 5 8 11 13 11 10 10 9 15 16 16 19
12 12 12 9 10 9 6 6 5 6 5 4 4 4 6 5 7 6 6 6 7 6 5 4 4 4 2 3 3 4 3 5 9 9 9 9 10 12 11 11 8 8 17
9 10 8 9 7 6 4 5 4 4 4 4 4 6 6 6 7 7 5 6 5 6 5 6 3 4 6 7 4 4 4 8 9 7 7 9 13 13 13 10 7 6 7
9 9 8 8 8 5 4 3 4 6 3 5 4 5 6 7 6 7 6 5 6 6 7 8 6 3 4 7 3 1 4 4 4 7 9 11 13 9 11 11 10 8 8
10 10 10 9 10 8 5 6 5 7 6 3 4 4 4 7 7 6 7 6 7 5 5 5 5 7 5 5 10 4 4 2 3 3 8 10 11 6 8 8 10 11 10
10 9 10 11 7 8 7 9 11 7 9 4 4 4 4 6 7 6 7 6 7 5 6 6 7 7 6 6 4 7 7 6 3 4 4 8 7 8 9 7 8 9 11
13 11 9 8 7 7 8 9 6 6 7 6 6 7 6 6 7 7 7 7 7 4 6 8 8 8 7 6 6 4 4 6 6 5 2 7 4 6 7 7 6 7 9
14 13 12 12 9 11 8 7 9 12 12 9 7 6 4 4 4 6 7 6 6 6 7 6 7 9 7 7 6 7 8 5 4 4 3 5 6 5 7 9 6 9 7
Wind_Direction
109 117 103 93 89 92 101 107 109 107 101 97 96 89 84 77 84 97 90 84 84 81 82 81 83 85 86 88 87 84 81 84 95 85 88 89 86 77 65 132 107 94 88
127 117 97 97 96 99 105 104 103 105 99 96 91 87 82 83 73 71 78 80 78 89 87 91 86 81 77 74 70 72 75 74 79 93 99 104 98 80 63 100 99 103 98
116 115 102 99 100 101 102 100 102 106 101 95 92 88 81 77 74 78 77 72 72 78 77 81 81 76 66 57 48 46 54 60 64 69 98 71 74 98 91 101 108 103 100
113 111 106 102 103 106 108 108 108 102 101 98 93 93 89 84 75 67 69 71 88 86 90 85 78 73 63 39 37 36 37 33 29 360 307 225 123 112 106 102 101 104 116
109 110 109 104 102 102 101 98 95 94 97 101 96 85 87 87 86 81 81 80 92 97 93 88 83 77 58 38 28 17 15 8 341 290 251 227 171 130 126 118 128 122 99
111 112 108 106 104 101 99 100 101 98 94 90 94 96 91 91 93 84 80 83 93 106 105 106 103 94 54 17 8 358 351 340 335 326 285 167 147 151 144 145 138 142 149
113 114 112 108 108 109 108 106 105 104 103 103 102 101 100 96 94 86 81 86 95 111 117 120 128 132 125 336 336 329 322 318 325 334 113 189 147 159 157 163 169 184 192
121 120 117 114 114 113 115 111 107 108 110 109 111 113 113 113 113 106 100 95 96 102 116 125 139 317 318 329 330 323 313 312 326 360 23 215 163 166 161 169 185 204 219
124 122 120 120 120 120 121 123 124 124 122 125 129 129 129 131 131 129 127 131 125 122 126 141 166 270 286 292 293 299 303 314 319 103 276 187 175 173 171 173 187 213 232
129 130 134 131 130 127 133 134 137 141 144 150 147 148 149 150 148 145 148 154 155 163 176 194 210 231 250 259 275 282 290 306 320 316 251 175 185 180 183 180 191 212 231
132 137 141 147 150 149 149 157 156 155 162 172 174 177 173 161 176 178 188 178 175 184 200 215 229 238 251 273 278 272 274 290 297 302 215 185 193 188 190 190 197 218 236
140 144 148 148 155 160 169 160 168 174 176 193 191 199 197 191 190 195 184 193 197 196 211 225 237 244 266 252 259 267 229 252 277 285 201 188 198 203 203 201 206 219 231
143 143 147 153 160 171 147 172 171 183 190 202 214 165 72 156 177 181 184 201 207 213 236 243 249 244 239 241 246 249 224 236 247 280 214 188 213 215 218 210 216 236 267
146 149 155 154 133 193 124 184 181 168 171 115 70 41 37 2 55 152 207 187 202 212 243 246 240 237 239 260 278 301 257 262 275 273 210 239 291 15 36 36 28 18 4
161 158 160 144 133 130 177 139 112 107 98 75 53 40 41 14 29 358 55 45 92 52 77 35 36 18 352 11 24 359 7 321 298 332 330 68 66 59 51 47 44 40 38
161 160 150 139 136 99 85 95 102 100 94 86 67 44 42 30 20 39 62 51 30 55 45 34 27 11 3 1 17 16 11 4 355 339 37 65 78 66 56 60 47 50 35
118 126 122 120 104 91 83 81 71 84 86 77 66 38 26 25 16 41 49 32 18 33 36 28 16 15 18 17 10 10 6 346 4 61 67 75 66 39 46 47 40 34 29
112 108 97 106 96 80 69 64 72 71 76 75 64 47 33 24 44 51 49 31 34 40 35 25 14 1 20 19 352 351 0 9 56 62 68 64 58 44 38 33 35 24 19
111 110 98 92 96 93 79 76 71 73 78 78 69 56 48 32 34 64 54 48 58 51 36 19 2 23 16 355 342 352 7 11 65 65 64 59 56 48 44 43 26 15 13
103 103 104 98 100 95 89 84 69 75 68 80 84 61 57 52 39 64 51 57 63 59 32 15 25 17 27 336 354 4 38 56 72 75 62 55 56 46 48 28 16 7 11
89 102 109 118 116 122 120 109 84 107 115 90 84 72 57 67 53 62 58 67 68 70 52 25 10 28 29 7 43 12 49 66 73 72 59 50 44 41 28 19 14 11 15
131 127 128 138 146 156 142 145 144 141 115 117 95 81 71 67 59 71 66 63 64 65 49 29 23 16 28 23 58 47 16 355 31 52 54 42 37 28 20 12 12 10 7
143 148 154 161 161 158 159 125 111 112 112 84 85 76 74 76 71 71 70 72 64 63 63 44 31 41 46 15 35 95 49 4 342 11 54 45 30 20 11 358 12 5 15
156 151 154 164 165 157 139 132 144 139 142 132 113 102 80 78 74 67 70 81 74 66 64 57 47 47 47 33 10 41 61 61 21 339 5 36 10 12 360 7 359 11 355
154 161 164 164 168 161 154 150 147 127 116 116 113 106 97 78 81 72 69 74 76 67 67 63 51 50 46 56 41 9 34 49 21 59 326 347 355 8 353 359 349 358 346
159 160 170 173 175 171 167 163 144 137 132 131 131 127 116 97 84 76 76 74 76 77 71 69 63 70 66 60 58 67 64 61 35 36 16 338 333 320 336 348 343 345 339